Time,TemperatureF,DewpointF,PressureIn,WindDirection,WindDirectionDegrees,WindSpeedMPH,WindSpeedGustMPH,Humidity,HourlyPrecipIn,Conditions,Clouds,dailyrainin,SoftwareType,DateUTC
2013-08-14 00:12:00,60.3,56.4,29.97,WNW,292,0.0,-999.0,87,-99.99,,,0.00,Acu-Link.com,2013-08-14 05:12:00,
2013-08-14 00:28:00,59.7,56.5,29.97,WNW,292,0.0,-999.0,89,-99.99,,,0.00,Acu-Link.com,2013-08-14 05:28:00,
2013-08-14 00:43:00,59.0,55.8,29.98,West,270,1.7,-999.0,89,-99.99,,,0.00,Acu-Link.com,2013-08-14 05:43:00,
2013-08-14 00:58:00,59.0,55.8,29.98,West,270,1.7,-999.0,89,-99.99,,,0.00,Acu-Link.com,2013-08-14 05:58:00,
2013-08-14 01:13:00,59.0,55.4,29.98,West,270,2.2,-999.0,88,-99.99,,,0.00,Acu-Link.com,2013-08-14 06:13:00,
2013-08-14 01:28:00,58.6,55.1,29.99,West,270,1.7,-999.0,88,-99.99,,,0.00,Acu-Link.com,2013-08-14 06:28:00,
2013-08-14 01:44:00,58.5,55.0,29.98,West,270,2.2,-999.0,88,-99.99,,,0.00,Acu-Link.com,2013-08-14 06:44:00,
2013-08-14 01:59:00,58.8,55.3,29.99,West,270,1.7,-999.0,88,-99.99,,,0.00,Acu-Link.com,2013-08-14 06:59:00,
2013-08-14 02:14:00,58.1,54.6,29.98,West,270,0.0,-999.0,88,-99.99,,,0.00,Acu-Link.com,2013-08-14 07:14:00,
2013-08-14 02:29:00,57.6,54.1,29.98,West,270,0.0,-999.0,88,-99.99,,,0.00,Acu-Link.com,2013-08-14 07:29:00,
2013-08-14 02:45:00,57.4,53.9,29.98,West,270,2.2,-999.0,88,-99.99,,,0.00,Acu-Link.com,2013-08-14 07:45:00,
2013-08-14 03:00:00,57.2,54.0,29.98,East,90,1.7,-999.0,89,-99.99,,,0.00,Acu-Link.com,2013-08-14 08:00:00,
2013-08-14 03:15:00,57.0,53.8,29.99,ENE,67,0.0,-999.0,89,-99.99,,,0.00,Acu-Link.com,2013-08-14 08:15:00,
2013-08-14 03:30:00,56.1,52.9,29.99,ENE,67,0.0,-999.0,89,-99.99,,,0.00,Acu-Link.com,2013-08-14 08:30:00,
2013-08-14 03:45:00,56.3,53.4,29.98,ENE,67,0.0,-999.0,90,-99.99,,,0.00,Acu-Link.com,2013-08-14 08:45:00,
2013-08-14 04:00:00,56.5,53.6,29.98,East,90,0.0,-999.0,90,-99.99,,,0.00,Acu-Link.com,2013-08-14 09:00:00,
2013-08-14 04:16:00,55.8,52.6,29.98,NNE,22,0.0,-999.0,89,-99.99,,,0.00,Acu-Link.com,2013-08-14 09:16:00,
2013-08-14 04:31:00,56.3,53.4,29.97,East,90,3.2,-999.0,90,-99.99,,,0.00,Acu-Link.com,2013-08-14 09:31:00,
2013-08-14 04:46:00,56.5,53.3,29.97,East,90,0.0,-999.0,89,-99.99,,,0.00,Acu-Link.com,2013-08-14 09:46:00,
2013-08-14 05:02:00,55.0,51.8,29.97,East,90,2.7,-999.0,89,-99.99,,,0.00,Acu-Link.com,2013-08-14 10:02:00,
2013-08-14 05:17:00,55.6,52.7,29.97,East,90,1.7,-999.0,90,-99.99,,,0.00,Acu-Link.com,2013-08-14 10:17:00,
2013-08-14 05:32:00,55.6,52.7,29.97,East,90,2.2,-999.0,90,-99.99,,,0.00,Acu-Link.com,2013-08-14 10:32:00,
2013-08-14 05:47:00,55.6,52.7,29.98,East,90,2.2,-999.0,90,-99.99,,,0.00,Acu-Link.com,2013-08-14 10:47:00,
2013-08-14 06:03:00,54.1,51.2,29.99,West,270,1.1,-999.0,90,-99.99,,,0.00,Acu-Link.com,2013-08-14 11:03:00,
2013-08-14 06:18:00,54.1,51.2,29.98,West,270,0.0,-999.0,90,-99.99,,,0.00,Acu-Link.com,2013-08-14 11:18:00,
2013-08-14 06:33:00,55.0,52.4,29.99,ENE,67,1.7,-999.0,91,-99.99,,,0.00,Acu-Link.com,2013-08-14 11:33:00,
2013-08-14 06:49:00,54.5,51.9,30.00,SW,225,0.0,-999.0,91,-99.99,,,0.00,Acu-Link.com,2013-08-14 11:49:00,
2013-08-14 07:04:00,54.7,52.1,30.00,East,90,2.2,-999.0,91,-99.99,,,0.00,Acu-Link.com,2013-08-14 12:04:00,
2013-08-14 07:19:00,55.8,53.2,30.00,SW,225,0.0,-999.0,91,-99.99,,,0.00,Acu-Link.com,2013-08-14 12:19:00,
2013-08-14 07:34:00,58.6,54.7,30.00,ENE,67,0.0,-999.0,87,-99.99,,,0.00,Acu-Link.com,2013-08-14 12:34:00,
2013-08-14 07:50:00,60.3,55.4,30.00,ESE,112,2.2,-999.0,84,-99.99,,,0.00,Acu-Link.com,2013-08-14 12:50:00,
2013-08-14 08:05:00,60.8,55.6,30.00,ESE,112,3.2,-999.0,83,-99.99,,,0.00,Acu-Link.com,2013-08-14 13:05:00,
2013-08-14 08:20:00,62.6,56.3,30.01,SE,135,2.2,-999.0,80,-99.99,,,0.00,Acu-Link.com,2013-08-14 13:20:00,
2013-08-14 08:35:00,63.5,56.9,30.01,ESE,112,3.7,-999.0,79,-99.99,,,0.00,Acu-Link.com,2013-08-14 13:35:00,
2013-08-14 08:50:00,64.6,57.2,30.01,SE,135,4.2,-999.0,77,-99.99,,,0.00,Acu-Link.com,2013-08-14 13:50:00,
2013-08-14 09:05:00,64.8,57.8,30.02,ESE,112,5.8,-999.0,78,-99.99,,,0.00,Acu-Link.com,2013-08-14 14:05:00,
2013-08-14 09:20:00,65.1,57.7,30.02,SSE,157,6.8,-999.0,77,-99.99,,,0.00,Acu-Link.com,2013-08-14 14:20:00,
2013-08-14 09:35:00,66.0,58.2,30.02,SE,135,4.2,-999.0,76,-99.99,,,0.00,Acu-Link.com,2013-08-14 14:35:00,
2013-08-14 09:51:00,67.3,58.7,30.02,SSE,157,6.8,-999.0,74,-99.99,,,0.00,Acu-Link.com,2013-08-14 14:51:00,
2013-08-14 10:06:00,69.1,59.7,30.02,SSE,157,5.8,-999.0,72,-99.99,,,0.00,Acu-Link.com,2013-08-14 15:06:00,
2013-08-14 10:21:00,70.3,60.4,30.01,SSE,157,4.2,-999.0,71,-99.99,,,0.00,Acu-Link.com,2013-08-14 15:21:00,
2013-08-14 10:36:00,71.6,60.5,30.01,SSW,202,5.8,-999.0,68,-99.99,,,0.00,Acu-Link.com,2013-08-14 15:36:00,
2013-08-14 11:07:00,73.6,61.5,30.01,SSE,157,3.7,-999.0,66,-99.99,,,0.00,Acu-Link.com,2013-08-14 16:07:00,
2013-08-14 11:37:00,75.7,62.2,30.00,SSE,157,4.2,-999.0,63,-99.99,,,0.00,Acu-Link.com,2013-08-14 16:37:00,
2013-08-14 11:53:00,76.6,62.1,29.99,SSE,157,6.8,-999.0,61,-99.99,,,0.00,Acu-Link.com,2013-08-14 16:53:00,
2013-08-14 12:08:00,76.1,60.7,29.99,SSE,157,8.3,-999.0,59,-99.99,,,0.00,Acu-Link.com,2013-08-14 17:08:00,
2013-08-14 12:23:00,75.2,59.9,29.99,SSE,157,10.4,-999.0,59,-99.99,,,0.00,Acu-Link.com,2013-08-14 17:23:00,
2013-08-14 12:38:00,76.1,60.7,29.99,SSE,157,8.9,-999.0,59,-99.99,,,0.00,Acu-Link.com,2013-08-14 17:38:00,
2013-08-14 12:53:00,77.4,61.4,29.98,SSW,202,4.7,-999.0,58,-99.99,,,0.00,Acu-Link.com,2013-08-14 17:53:00,
2013-08-14 13:08:00,77.9,61.4,29.98,SE,135,9.4,-999.0,57,-99.99,,,0.00,Acu-Link.com,2013-08-14 18:08:00,
2013-08-14 13:23:00,76.1,60.2,29.97,SE,135,7.8,-999.0,58,-99.99,,,0.00,Acu-Link.com,2013-08-14 18:23:00,
2013-08-14 13:39:00,75.9,59.6,29.97,East,90,7.3,-999.0,57,-99.99,,,0.00,Acu-Link.com,2013-08-14 18:39:00,
2013-08-14 13:54:00,75.7,59.4,29.96,South,180,5.3,-999.0,57,-99.99,,,0.00,Acu-Link.com,2013-08-14 18:54:00,
2013-08-14 14:39:00,75.9,60.0,29.96,ESE,112,5.8,-999.0,58,-99.99,,,0.00,Acu-Link.com,2013-08-14 19:39:00,
2013-08-14 14:54:00,74.7,59.4,29.95,ESE,112,6.8,-999.0,59,-99.99,,,0.00,Acu-Link.com,2013-08-14 19:54:00,
2013-08-14 15:09:00,74.8,59.5,29.95,SE,135,2.7,-999.0,59,-99.99,,,0.00,Acu-Link.com,2013-08-14 20:09:00,
2013-08-14 15:40:00,74.8,59.5,29.94,ESE,112,6.8,-999.0,59,-99.99,,,0.00,Acu-Link.com,2013-08-14 20:40:00,
2013-08-14 15:55:00,74.8,60.0,29.94,SE,135,5.8,-999.0,60,-99.99,,,0.00,Acu-Link.com,2013-08-14 20:55:00,
2013-08-14 16:10:00,75.4,59.6,29.94,SE,135,5.3,-999.0,58,-99.99,,,0.00,Acu-Link.com,2013-08-14 21:10:00,
2013-08-14 16:25:00,74.1,59.8,29.92,East,90,6.3,-999.0,61,-99.99,,,0.00,Acu-Link.com,2013-08-14 21:25:00,
2013-08-14 16:41:00,74.3,60.0,29.93,ESE,112,4.2,-999.0,61,-99.99,,,0.00,Acu-Link.com,2013-08-14 21:41:00,
2013-08-14 16:56:00,74.1,60.2,29.93,East,90,5.3,-999.0,62,-99.99,,,0.00,Acu-Link.com,2013-08-14 21:56:00,
2013-08-14 17:11:00,73.2,59.4,29.92,ESE,112,4.7,-999.0,62,-99.99,,,0.00,Acu-Link.com,2013-08-14 22:11:00,
2013-08-14 17:26:00,72.9,60.4,29.92,East,90,3.7,-999.0,65,-99.99,,,0.00,Acu-Link.com,2013-08-14 22:26:00,
2013-08-14 17:42:00,72.7,59.8,29.91,ESE,112,5.3,-999.0,64,-99.99,,,0.00,Acu-Link.com,2013-08-14 22:42:00,
2013-08-14 17:57:00,72.0,59.6,29.91,ESE,112,7.3,-999.0,65,-99.99,,,0.00,Acu-Link.com,2013-08-14 22:57:00,
2013-08-14 18:12:00,71.8,59.4,29.90,ESE,112,4.2,-999.0,65,-99.99,,,0.00,Acu-Link.com,2013-08-14 23:12:00,
2013-08-14 18:27:00,71.1,59.6,29.90,ESE,112,4.2,-999.0,67,-99.99,,,0.00,Acu-Link.com,2013-08-14 23:27:00,
2013-08-14 18:43:00,70.0,59.4,29.90,ESE,112,4.7,-999.0,69,-99.99,,,0.00,Acu-Link.com,2013-08-14 23:43:00,
2013-08-14 18:58:00,69.6,59.8,29.89,ESE,112,4.7,-999.0,71,-99.99,,,0.00,Acu-Link.com,2013-08-14 23:58:00,
2013-08-14 19:13:00,69.4,59.6,29.89,East,90,4.7,-999.0,71,-99.99,,,0.00,Acu-Link.com,2013-08-15 00:13:00,
2013-08-14 19:28:00,69.4,59.6,29.89,East,90,3.7,-999.0,71,-99.99,,,0.00,Acu-Link.com,2013-08-15 00:28:00,
2013-08-14 19:43:00,69.4,59.6,29.90,ESE,112,3.2,-999.0,71,-99.99,,,0.00,Acu-Link.com,2013-08-15 00:43:00,
2013-08-14 19:58:00,69.3,59.5,29.90,SE,135,3.7,-999.0,71,-99.99,,,0.00,Acu-Link.com,2013-08-15 00:58:00,
2013-08-14 20:13:00,68.5,58.7,29.90,ESE,112,2.7,-999.0,71,-99.99,,,0.00,Acu-Link.com,2013-08-15 01:13:00,
2013-08-14 20:28:00,67.8,59.2,29.90,ESE,112,3.2,-999.0,74,-99.99,,,0.00,Acu-Link.com,2013-08-15 01:28:00,
2013-08-14 20:44:00,67.5,59.3,29.89,ESE,112,3.7,-999.0,75,-99.99,,,0.00,Acu-Link.com,2013-08-15 01:44:00,
2013-08-14 20:59:00,67.1,59.3,29.90,ESE,112,3.2,-999.0,76,-99.99,,,0.00,Acu-Link.com,2013-08-15 01:59:00,
2013-08-14 21:14:00,66.9,59.4,29.91,ESE,112,3.2,-999.0,77,-99.99,,,0.00,Acu-Link.com,2013-08-15 02:14:00,
2013-08-14 21:29:00,66.7,59.3,29.91,ESE,112,2.2,-999.0,77,-99.99,,,0.00,Acu-Link.com,2013-08-15 02:29:00,
2013-08-14 21:45:00,66.2,59.1,29.90,ESE,112,2.7,-999.0,78,-99.99,,,0.00,Acu-Link.com,2013-08-15 02:45:00,
2013-08-14 22:00:00,66.0,58.9,29.91,ESE,112,2.7,-999.0,78,-99.99,,,0.00,Acu-Link.com,2013-08-15 03:00:00,
2013-08-14 22:15:00,65.5,58.8,29.90,ESE,112,2.7,-999.0,79,-99.99,,,0.00,Acu-Link.com,2013-08-15 03:15:00,
2013-08-14 22:31:00,64.2,58.6,29.90,SE,135,3.2,-999.0,82,-99.99,,,0.00,Acu-Link.com,2013-08-15 03:31:00,
2013-08-14 22:46:00,64.0,58.4,29.89,ESE,112,2.2,-999.0,82,-99.99,,,0.00,Acu-Link.com,2013-08-15 03:46:00,
2013-08-14 23:01:00,64.4,58.8,29.90,ESE,112,3.7,-999.0,82,-99.99,,,0.00,Acu-Link.com,2013-08-15 04:01:00,
2013-08-14 23:16:00,64.9,59.3,29.91,ESE,112,2.2,-999.0,82,-99.99,,,0.00,Acu-Link.com,2013-08-15 04:16:00,
2013-08-14 23:31:00,64.9,59.3,29.91,ESE,112,1.7,-999.0,82,-99.99,,,0.00,Acu-Link.com,2013-08-15 04:31:00,
2013-08-14 23:46:00,65.1,59.1,29.91,SSE,157,3.2,-999.0,81,-99.99,,,0.00,Acu-Link.com,2013-08-15 04:46:00,